When you browse on this site, cookies collect data to enhance your experience and personalize the content and advertising you see.
Visit our Privacy Policy to learn more. By continuing to use the site, you agree to this use of cookies and data.
  • în România
  • Lista ţărilor
  • Pe 7 zile
  • Temperatura apei
  • Meteo pe hartă
  • Widget-uri
  • user-avatar
    Intrare

    Meteo pe oră la Bandar Seri Begawan

    Astăzi, 15 Septembrie, Duminică

    Timp Temperatura Precipitaţii Vânt Presiune Umiditate
    00:00 +27°C° 0 mm 1 m/s 756 mmHg 84%
    01:00 +27°C° 0 mm 1 m/s 756 mmHg 85%
    02:00 +27°C° 0 mm 1 m/s 755 mmHg 86%
    03:00 +26°C° 0 mm 1 m/s 755 mmHg 86%
    04:00 +26°C° 0 mm 1 m/s 756 mmHg 86%
    05:00 +26°C° 0 mm 1 m/s 756 mmHg 86%
    06:00 +27°C° 0 mm 1 m/s 756 mmHg 81%
    07:00 +28°C° 0 mm 1 m/s 756 mmHg 76%
    08:00 +29°C° 0 mm 1 m/s 756 mmHg 70%
    09:00 +31°C° 0 mm 1 m/s 756 mmHg 62%
    10:00 +33°C° 0 mm 1 m/s 756 mmHg 54%
    11:00 +34°C° 0 mm 1 m/s 756 mmHg 46%
    12:00 +35°C° 0 mm 1 m/s 755 mmHg 44%
    13:00 +37°C° 0 mm 2 m/s 754 mmHg 43%
    14:00 +37°C° 0 mm 2 m/s 754 mmHg 43%
    15:00 +36°C° 0 mm 2 m/s 754 mmHg 51%
    16:00 +34°C° 0 mm 3 m/s 753 mmHg 59%
    17:00 +33°C° 0 mm 3 m/s 753 mmHg 67%
    18:00 +31°C° 0 mm 3 m/s 754 mmHg 72%
    19:00 +29°C° 0 mm 2 m/s 754 mmHg 77%
    20:00 +28°C° 0 mm 1 m/s 755 mmHg 83%
    21:00 +28°C° 0 mm 1 m/s 755 mmHg 84%
    22:00 +28°C° 0 mm 1 m/s 756 mmHg 85%
    23:00 +27°C° 0 mm 1 m/s 756 mmHg 86%

    Mâine, 16 Septembrie, Luni

    Timp Temperatura Precipitaţii Vânt Presiune Umiditate
    00:00 +27°C° 0 mm 1 m/s 756 mmHg 87%
    01:00 +27°C° 0 mm 1 m/s 756 mmHg 88%
    02:00 +25°C° 0 mm 0 m/s 755 mmHg 88%
    03:00 +27°C° 0 mm 1 m/s 755 mmHg 89%
    04:00 +26°C° 0 mm 1 m/s 755 mmHg 90%
    05:00 +26°C° 0 mm 1 m/s 755 mmHg 91%
    06:00 +27°C° 0 mm 1 m/s 756 mmHg 86%
    07:00 +28°C° 0 mm 1 m/s 756 mmHg 82%
    08:00 +29°C° 0 mm 1 m/s 756 mmHg 77%
    09:00 +31°C° 0 mm 1 m/s 756 mmHg 67%
    10:00 +34°C° 0 mm 1 m/s 756 mmHg 57%
    11:00 +36°C° 0 mm 1 m/s 755 mmHg 47%
    12:00 +37°C° 0 mm 2 m/s 755 mmHg 47%
    13:00 +37°C° 0 mm 2 m/s 754 mmHg 47%
    14:00 +37°C° 0 mm 3 m/s 753 mmHg 47%
    15:00 +36°C° 0 mm 3 m/s 753 mmHg 52%
    16:00 +34°C° 0 mm 4 m/s 753 mmHg 58%
    17:00 +33°C° 0 mm 4 m/s 753 mmHg 63%
    18:00 +30°C° 0 mm 3 m/s 753 mmHg 69%
    19:00 +29°C° 0 mm 2 m/s 754 mmHg 74%
    20:00 +28°C° 0 mm 1 m/s 754 mmHg 80%
    21:00 +25°C° 0 mm 0 m/s 755 mmHg 81%
    22:00 +25°C° 0 mm 0 m/s 755 mmHg 83%
    23:00 +25°C° 0 mm 0 m/s 756 mmHg 84%

    Poimâine, 17 Septembrie, Marţi

    Timp Temperatura Precipitaţii Vânt Presiune Umiditate
    00:00 +25°C° 0 mm 0 m/s 755 mmHg 85%
    01:00 +26°C° 0 mm 1 m/s 755 mmHg 87%
    02:00 +26°C° 0 mm 1 m/s 755 mmHg 88%
    03:00 +26°C° 0 mm 1 m/s 755 mmHg 89%
    04:00 +26°C° 0 mm 1 m/s 755 mmHg 90%
    05:00 +25°C° 0 mm 1 m/s 755 mmHg 90%
    06:00 +27°C° 0 mm 1 m/s 755 mmHg 85%
    07:00 +28°C° 0 mm 1 m/s 756 mmHg 80%
    08:00 +29°C° 0 mm 1 m/s 756 mmHg 75%
    09:00 +31°C° 0 mm 1 m/s 756 mmHg 66%
    10:00 +34°C° 0 mm 1 m/s 756 mmHg 56%
    11:00 +36°C° 0 mm 1 m/s 756 mmHg 46%
    12:00 +37°C° 0 mm 2 m/s 755 mmHg 46%
    13:00 +37°C° 0 mm 2 m/s 754 mmHg 46%
    14:00 +36°C° 0 mm 3 m/s 754 mmHg 46%
    15:00 +35°C° 0 mm 3 m/s 753 mmHg 50%
    16:00 +34°C° 0 mm 3 m/s 753 mmHg 55%
    17:00 +33°C° 0 mm 3 m/s 753 mmHg 59%
    18:00 +31°C° 0 mm 2 m/s 754 mmHg 65%
    19:00 +29°C° 0 mm 2 m/s 755 mmHg 72%
    20:00 +28°C° 0 mm 1 m/s 755 mmHg 78%
    21:00 +28°C° 0 mm 1 m/s 756 mmHg 78%
    22:00 +26°C° 0 mm 0 m/s 756 mmHg 78%
    23:00 +25°C° 0 mm 0 m/s 757 mmHg 79%

    18 Septembrie, Miercuri

    Timp Temperatura Precipitaţii Vânt Presiune Umiditate
    00:00 +27°C° 0 mm 1 m/s 756 mmHg 80%
    01:00 +27°C° 0 mm 1 m/s 756 mmHg 82%
    02:00 +27°C° 0 mm 1 m/s 755 mmHg 83%
    03:00 +26°C° 0 mm 1 m/s 755 mmHg 84%
    04:00 +26°C° 0 mm 1 m/s 755 mmHg 84%
    05:00 +26°C° 0 mm 1 m/s 755 mmHg 84%
    06:00 +27°C° 0 mm 1 m/s 756 mmHg 80%
    07:00 +28°C° 0 mm 1 m/s 756 mmHg 75%
    08:00 +29°C° 0 mm 1 m/s 756 mmHg 71%
    09:00 +31°C° 0 mm 1 m/s 756 mmHg 63%
    10:00 +33°C° 0 mm 1 m/s 756 mmHg 55%
    11:00 +35°C° 0 mm 1 m/s 756 mmHg 47%
    12:00 +35°C° 0 mm 1 m/s 755 mmHg 46%
    13:00 +37°C° 0 mm 2 m/s 754 mmHg 45%
    14:00 +37°C° 0 mm 2 m/s 754 mmHg 45%
    15:00 +35°C° 0 mm 3 m/s 754 mmHg 50%
    16:00 +34°C° 0 mm 3 m/s 754 mmHg 55%
    17:00 +33°C° 0 mm 3 m/s 754 mmHg 60%
    18:00 +31°C° 0 mm 3 m/s 754 mmHg 67%
    19:00 +30°C° 0 mm 2 m/s 755 mmHg 74%
    20:00 +28°C° 0 mm 2 m/s 756 mmHg 82%
    21:00 +28°C° 0 mm 1 m/s 756 mmHg 82%
    22:00 +28°C° 0 mm 1 m/s 756 mmHg 83%
    23:00 +28°C° 0 mm 1 m/s 757 mmHg 83%

    19 Septembrie, Joi

    Timp Temperatura Precipitaţii Vânt Presiune Umiditate
    00:00 +28°C° 0 mm 1 m/s 757 mmHg 84%
    01:00 +27°C° 0 mm 1 m/s 756 mmHg 84%
    02:00 +27°C° 0 mm 1 m/s 756 mmHg 84%
    03:00 +27°C° 0 mm 1 m/s 756 mmHg 85%
    04:00 +27°C° 0 mm 1 m/s 756 mmHg 86%
    05:00 +27°C° 0 mm 1 m/s 756 mmHg 86%
    06:00 +28°C° 0.1 mm 1 m/s 756 mmHg 83%
    07:00 +28°C° 0.1 mm 1 m/s 757 mmHg 80%
    08:00 +29°C° 0.1 mm 1 m/s 757 mmHg 77%
    09:00 +31°C° 0 mm 1 m/s 757 mmHg 69%
    10:00 +33°C° 0 mm 1 m/s 757 mmHg 61%
    11:00 +36°C° 0 mm 2 m/s 757 mmHg 53%
    12:00 +35°C° 0.1 mm 2 m/s 756 mmHg 55%
    13:00 +35°C° 0.1 mm 3 m/s 755 mmHg 56%
    14:00 +35°C° 0.1 mm 3 m/s 755 mmHg 58%
    15:00 +34°C° 0.1 mm 3 m/s 754 mmHg 60%
    16:00 +34°C° 0.1 mm 3 m/s 754 mmHg 62%
    17:00 +33°C° 0.1 mm 3 m/s 754 mmHg 64%
    18:00 +31°C° 0 mm 2 m/s 755 mmHg 69%
    19:00 +30°C° 0 mm 2 m/s 755 mmHg 75%
    20:00 +29°C° 0 mm 2 m/s 756 mmHg 80%
    21:00 +28°C° 0 mm 2 m/s 756 mmHg 82%
    22:00 +28°C° 0 mm 2 m/s 756 mmHg 83%
    23:00 +28°C° 0 mm 2 m/s 757 mmHg 84%

    20 Septembrie, Vineri

    Timp Temperatura Precipitaţii Vânt Presiune Umiditate
    00:00 +28°C° 0 mm 2 m/s 756 mmHg 85%
    01:00 +28°C° 0 mm 2 m/s 756 mmHg 85%
    02:00 +28°C° 0 mm 2 m/s 756 mmHg 86%
    03:00 +27°C° 0 mm 2 m/s 756 mmHg 87%
    04:00 +27°C° 0 mm 1 m/s 756 mmHg 87%
    05:00 +27°C° 0 mm 1 m/s 756 mmHg 88%
    06:00 +28°C° 0 mm 1 m/s 756 mmHg 84%
    07:00 +29°C° 0 mm 1 m/s 756 mmHg 80%
    08:00 +30°C° 0 mm 1 m/s 757 mmHg 76%
    09:00 +31°C° 0 mm 1 m/s 756 mmHg 69%
    10:00 +33°C° 0 mm 1 m/s 756 mmHg 62%
    11:00 +34°C° 0 mm 1 m/s 756 mmHg 55%
    12:00 +35°C° 0 mm 2 m/s 755 mmHg 55%
    13:00 +35°C° 0 mm 2 m/s 754 mmHg 55%
    14:00 +35°C° 0 mm 3 m/s 754 mmHg 56%
    15:00 +34°C° 0 mm 3 m/s 754 mmHg 59%
    16:00 +34°C° 0 mm 3 m/s 753 mmHg 62%
    17:00 +33°C° 0 mm 3 m/s 753 mmHg 65%
    18:00 +31°C° 0 mm 3 m/s 754 mmHg 71%
    19:00 +29°C° 0 mm 2 m/s 754 mmHg 77%
    20:00 +28°C° 0 mm 2 m/s 755 mmHg 83%
    21:00 +28°C° 0 mm 2 m/s 755 mmHg 83%
    22:00 +28°C° 0 mm 2 m/s 756 mmHg 84%
    23:00 +28°C° 0 mm 1 m/s 756 mmHg 84%
    Arată mai mult